User: anonymous   Login
Location: Tyler Bend Campground
(35.9875°N, 92.7606°W)
Time: 20:15:30
(UTC-05:00)
Language:

Iridium 39 - Orbit

View from above orbital plane
View from above orbital plane
View from above satellite
View from above satellite

Ground track
Ground track

The orbit data is extracted from the following two-line orbital elements,

1 25042U 97069D   16239.31622486  .00000126  00000-0  29637-4 0  9997
2 25042  86.3965 145.0282 0017637 207.8861 152.1398 14.46078199984100
Epoch (UTC): 26 August 2016 07:35:21
Eccentricity: 0.0017637
inclination: 86.3965°
perigee height: 726 km
apogee height: 751 km
right ascension of ascending node: 145.0282°
argument of perigee: 207.8861°
revolutions per day: 14.46078199
mean anomaly at epoch: 152.1398°
orbit number at epoch: 98410

The dashed part of the orbit path shows where the satellite is in the earth's shadow,  

DLR